Date,TemperatureHighF,TemperatureAvgF,TemperatureLowF,DewpointHighF,DewpointAvgF,DewpointLowF,HumidityHigh,HumidityAvg,HumidityLow,PressureMaxIn,PressureMinIn,WindSpeedMaxMPH,WindSpeedAvgMPH,GustSpeedMaxMPH,PrecipitationSumIn
2013-12-1,39,32,26,-100,-100,-100,0,0,100,0.00,40.00,0,-999,0,0.00
2013-12-2,37,33,29,-100,-100,-100,0,0,100,0.00,40.00,0,-999,0,0.00
2013-12-3,43,33,26,-100,-100,-100,0,0,100,0.00,40.00,0,-999,0,0.00
2013-12-4,40,29,22,-100,-100,-100,0,0,100,0.00,40.00,0,-999,0,0.00
2013-12-5,41,35,26,-100,-100,-100,0,0,100,0.00,40.00,0,-999,0,0.02
2013-12-6,45,40,32,-100,-100,-100,0,0,100,0.00,40.00,0,-999,0,0.19
2013-12-7,34,29,21,-100,-100,-100,0,0,100,0.00,40.00,0,-999,0,0.20
2013-12-8,28,24,18,-100,-100,-100,0,0,100,0.00,40.00,0,-999,0,0.01
2013-12-9,32,28,22,-100,-100,-100,0,0,100,0.00,40.00,0,-999,0,0.16
2013-12-10,31,27,16,-100,-100,-100,0,0,100,0.00,40.00,0,-999,0,0.07
2013-12-11,29,22,16,-100,-100,-100,0,0,100,0.00,40.00,0,-999,0,0.01
2013-12-12,21,14,6,-100,-100,-100,0,0,100,0.00,40.00,0,-999,0,0.01
2013-12-13,25,14,6,-100,-100,-100,0,0,100,0.00,40.00,0,-999,0,0.00
2013-12-14,12,8,3,-100,-100,-100,0,0,100,0.00,40.00,0,-999,0,0.16
2013-12-15,26,20,12,-100,-100,-100,0,0,100,0.00,40.00,0,-999,0,0.70
2013-12-16,24,16,2,-100,-100,-100,0,0,100,0.00,40.00,0,-999,0,0.01
2013-12-17,13,5,-9,-100,-100,-100,0,0,100,0.00,40.00,0,-999,0,0.24
2013-12-18,28,17,9,-100,-100,-100,0,0,100,0.00,40.00,0,-999,0,0.10
2013-12-19,36,25,16,-100,-100,-100,0,0,100,0.00,40.00,0,-999,0,0.00
2013-12-20,37,30,23,-100,-100,-100,0,0,100,0.00,40.00,0,-999,0,0.00
2013-12-21,44,36,32,-100,-100,-100,0,0,100,0.00,40.00,0,-999,0,0.03
2013-12-22,42,37,34,-100,-100,-100,0,0,100,0.00,40.00,0,-999,0,0.11
2013-12-23,36,35,33,-100,-100,-100,0,0,100,0.00,40.00,0,-999,0,0.56
2013-12-24,33,28,21,-100,-100,-100,0,0,100,0.00,40.00,0,-999,0,0.04
2013-12-25,21,15,9,-100,-100,-100,0,0,100,0.00,40.00,0,-999,0,0.00
2013-12-26,27,22,16,-100,-100,-100,0,0,100,0.00,40.00,0,-999,0,0.15
2013-12-27,30,24,16,-100,-100,-100,0,0,100,0.00,40.00,0,-999,0,0.12
2013-12-28,37,25,14,-100,-100,-100,0,0,100,0.00,40.00,0,-999,0,0.00
2013-12-29,35,30,24,-100,-100,-100,0,0,100,0.00,40.00,0,-999,0,0.95
2013-12-30,35,28,12,-100,-100,-100,0,0,100,0.00,40.00,0,-999,0,0.70
2013-12-31,19,12,5,-100,-100,-100,0,0,100,0.00,40.00,0,-999,0,0.01